Station Historical Data
Daily Summary for June 1, 2017 Units:  English    Metric   Both
« Previous Day
Next Day »
Daily Weekly Monthly Yearly Custom
  High: Low: Average:
Temperature: 72.1 °F 54.4 °F 62.7 °F
Dew Point: 58.3 °F 50.3 °F 54.1 °F
Humidity: 87 % 56 % 74 %
Wind Speed: 13.0 mph 0.0 mph 1.2 mph
Wind Gust: 14.0 mph - -
Wind:- - South
Pressure: 29.96 in 29.91 in -
Precipitation: 0.00 in    
Historical Graphs
 
 
Tabular Data for June 1, 2017
Time Temperature Dew Point Pressure Wind Wind Speed Wind Gust Humidity Rainfall Rate (Hourly) solar
00:03 57.3 °F 53.2 °F 29.92 in Calm   3.0 mph 86 % 0.00 in 0.00 W/m2
00:08 57.3 °F 53.2 °F 29.92 in SSW 2.0 mph 3.0 mph 86 % 0.00 in 0.00 W/m2
00:13 57.2 °F 53.1 °F 29.92 in Calm     86 % 0.00 in 0.00 W/m2
00:18 57.2 °F 53.1 °F 29.92 in Calm     86 % 0.00 in 0.00 W/m2
00:23 57.1 °F 53.0 °F 29.92 in Calm     86 % 0.00 in 0.00 W/m2
00:28 57.1 °F 53.0 °F 29.92 in Calm     86 % 0.00 in 0.00 W/m2
00:33 57.0 °F 52.9 °F 29.92 in Calm     86 % 0.00 in 0.00 W/m2
00:38 56.9 °F 52.8 °F 29.92 in Calm     86 % 0.00 in 0.00 W/m2
00:43 56.7 °F 52.6 °F 29.92 in Calm     86 % 0.00 in 0.00 W/m2
00:48 56.6 °F 52.5 °F 29.92 in Calm     86 % 0.00 in 0.00 W/m2
00:53 56.4 °F 52.3 °F 29.92 in Calm     86 % 0.00 in 0.00 W/m2
00:58 56.3 °F 52.2 °F 29.92 in Calm     86 % 0.00 in 0.00 W/m2
01:03 56.2 °F 52.1 °F 29.92 in Calm     86 % 0.00 in 0.00 W/m2
01:08 56.1 °F 52.0 °F 29.92 in Calm     86 % 0.00 in 0.00 W/m2
01:13 56.1 °F 52.0 °F 29.92 in Calm     86 % 0.00 in 0.00 W/m2
01:18 56.0 °F 51.9 °F 29.92 in Calm     86 % 0.00 in 0.00 W/m2
01:23 55.9 °F 51.8 °F 29.92 in Calm     86 % 0.00 in 0.00 W/m2
01:28 55.8 °F 51.7 °F 29.92 in Calm     86 % 0.00 in 0.00 W/m2
01:33 55.7 °F 51.6 °F 29.92 in Calm     86 % 0.00 in 0.00 W/m2
01:38 55.6 °F 51.8 °F 29.92 in Calm     87 % 0.00 in 0.00 W/m2
01:43 55.6 °F 51.8 °F 29.91 in Calm   1.0 mph 87 % 0.00 in 0.00 W/m2
01:48 55.5 °F 51.7 °F 29.91 in SSW 3.0 mph 3.0 mph 87 % 0.00 in 0.00 W/m2
01:53 55.5 °F 51.7 °F 29.91 in Calm   4.0 mph 87 % 0.00 in 0.00 W/m2
01:58 55.5 °F 51.7 °F 29.91 in Calm     87 % 0.00 in 0.00 W/m2
02:03 55.5 °F 51.7 °F 29.91 in SSW 3.0 mph 4.0 mph 87 % 0.00 in 0.00 W/m2
02:08 55.5 °F 51.7 °F 29.92 in SSW 3.0 mph 3.0 mph 87 % 0.00 in 0.00 W/m2
02:13 55.5 °F 51.7 °F 29.91 in SSW 3.0 mph 4.0 mph 87 % 0.00 in 0.00 W/m2
02:18 55.5 °F 51.7 °F 29.91 in Calm   3.0 mph 87 % 0.00 in 0.00 W/m2
02:23 55.5 °F 51.7 °F 29.91 in Calm   3.0 mph 87 % 0.00 in 0.00 W/m2
02:28 55.4 °F 51.6 °F 29.91 in Calm   1.0 mph 87 % 0.00 in 0.00 W/m2
02:33 55.5 °F 51.7 °F 29.91 in South 5.0 mph 5.0 mph 87 % 0.00 in 0.00 W/m2
02:38 55.4 °F 51.6 °F 29.91 in South 2.0 mph 8.0 mph 87 % 0.00 in 0.00 W/m2
02:43 55.4 °F 51.6 °F 29.91 in SSE 4.0 mph 7.0 mph 87 % 0.00 in 0.00 W/m2
02:48 55.4 °F 51.6 °F 29.91 in SSE 6.0 mph 7.0 mph 87 % 0.00 in 0.00 W/m2
02:53 55.4 °F 51.6 °F 29.91 in SE 2.0 mph 6.0 mph 87 % 0.00 in 0.00 W/m2
02:58 55.3 °F 51.5 °F 29.91 in SE 2.0 mph 7.0 mph 87 % 0.00 in 0.00 W/m2
03:03 55.3 °F 51.5 °F 29.91 in SE 2.0 mph 7.0 mph 87 % 0.00 in 0.00 W/m2
03:08 55.3 °F 51.5 °F 29.91 in SE 4.0 mph 6.0 mph 87 % 0.00 in 0.00 W/m2
03:13 55.3 °F 51.5 °F 29.91 in SE 6.0 mph 7.0 mph 87 % 0.00 in 0.00 W/m2
03:19 55.2 °F 51.4 °F 29.91 in Calm   6.0 mph 87 % 0.00 in 0.00 W/m2
03:24 55.2 °F 51.4 °F 29.91 in SE 4.0 mph 7.0 mph 87 % 0.00 in 0.00 W/m2
03:29 55.2 °F 51.4 °F 29.91 in ESE 4.0 mph 7.0 mph 87 % 0.00 in 0.00 W/m2
03:34 55.1 °F 51.3 °F 29.91 in ESE 1.0 mph 7.0 mph 87 % 0.00 in 0.00 W/m2
03:39 55.1 °F 51.3 °F 29.91 in ESE 4.0 mph 6.0 mph 87 % 0.00 in 0.00 W/m2
03:44 55.1 °F 51.3 °F 29.91 in ESE 6.0 mph 6.0 mph 87 % 0.00 in 0.00 W/m2
03:49 55.0 °F 51.2 °F 29.92 in ESE 4.0 mph 7.0 mph 87 % 0.00 in 0.00 W/m2
03:54 55.0 °F 51.2 °F 29.92 in ESE 1.0 mph 5.0 mph 87 % 0.00 in 0.00 W/m2
03:59 55.0 °F 51.2 °F 29.92 in ESE 1.0 mph 6.0 mph 87 % 0.00 in 0.00 W/m2
04:04 54.9 °F 51.1 °F 29.92 in ESE 1.0 mph 7.0 mph 87 % 0.00 in 0.00 W/m2
04:09 54.9 °F 51.1 °F 29.92 in ESE 6.0 mph 6.0 mph 87 % 0.00 in 0.00 W/m2
04:14 54.9 °F 51.1 °F 29.92 in Calm   6.0 mph 87 % 0.00 in 0.00 W/m2
04:19 54.9 °F 51.1 °F 29.92 in ESE 7.0 mph 9.0 mph 87 % 0.00 in 0.00 W/m2
04:24 54.9 °F 51.1 °F 29.92 in ESE 6.0 mph 7.0 mph 87 % 0.00 in 0.00 W/m2
04:29 54.9 °F 51.1 °F 29.92 in ESE 4.0 mph 6.0 mph 87 % 0.00 in 0.00 W/m2
04:34 54.8 °F 51.0 °F 29.93 in ESE 2.0 mph 7.0 mph 87 % 0.00 in 0.00 W/m2
04:39 54.8 °F 51.0 °F 29.93 in Calm   8.0 mph 87 % 0.00 in 0.00 W/m2
04:44 54.8 °F 51.0 °F 29.93 in ESE 4.0 mph 7.0 mph 87 % 0.00 in 0.00 W/m2
04:49 54.7 °F 50.9 °F 29.93 in ESE 5.0 mph 6.0 mph 87 % 0.00 in 0.00 W/m2
04:54 54.7 °F 50.9 °F 29.93 in ESE 2.0 mph 8.0 mph 87 % 0.00 in 0.00 W/m2
04:59 54.7 °F 50.9 °F 29.93 in Calm   6.0 mph 87 % 0.00 in 0.00 W/m2
05:04 54.7 °F 50.9 °F 29.93 in ESE 1.0 mph 7.0 mph 87 % 0.00 in 0.00 W/m2
05:09 54.7 °F 50.9 °F 29.93 in ESE 4.0 mph 6.0 mph 87 % 0.00 in 0.00 W/m2
05:14 54.7 °F 50.9 °F 29.93 in Calm   6.0 mph 87 % 0.00 in 0.00 W/m2
05:19 54.7 °F 50.9 °F 29.94 in ESE 6.0 mph 8.0 mph 87 % 0.00 in 0.00 W/m2
05:24 54.7 °F 50.9 °F 29.93 in Calm   7.0 mph 87 % 0.00 in 0.00 W/m2
05:29 54.7 °F 50.9 °F 29.93 in ESE 4.0 mph 11.0 mph 87 % 0.00 in 0.00 W/m2
05:30 54.7 °F 50.9 °F 29.93 in ESE 2.0 mph 11.0 mph 87 % 0.00 in 0.00 W/m2
05:35 54.7 °F 50.9 °F 29.93 in East 8.0 mph 14.0 mph 87 % 0.00 in 0.00 W/m2
05:40 54.7 °F 50.9 °F 29.93 in East 1.0 mph 8.0 mph 87 % 0.00 in 5.00 W/m2
05:45 54.6 °F 50.8 °F 29.93 in East 2.0 mph 8.0 mph 87 % 0.00 in 7.00 W/m2
05:50 54.6 °F 50.5 °F 29.94 in East 5.0 mph 8.0 mph 86 % 0.00 in 11.00 W/m2
05:55 54.6 °F 50.5 °F 29.93 in East 1.0 mph 7.0 mph 86 % 0.00 in 14.00 W/m2
06:00 54.6 °F 50.5 °F 29.93 in East 1.0 mph 11.0 mph 86 % 0.00 in 16.00 W/m2
06:05 54.6 °F 50.5 °F 29.93 in ESE 6.0 mph 9.0 mph 86 % 0.00 in 19.00 W/m2
06:10 54.5 °F 50.4 °F 29.93 in ESE 4.0 mph 11.0 mph 86 % 0.00 in 23.00 W/m2
06:15 54.5 °F 50.4 °F 29.93 in ESE 7.0 mph 12.0 mph 86 % 0.00 in 32.00 W/m2
06:20 54.5 °F 50.4 °F 29.93 in ESE 7.0 mph 12.0 mph 86 % 0.00 in 40.00 W/m2
06:25 54.4 °F 50.3 °F 29.93 in East 13.0 mph 13.0 mph 86 % 0.00 in 53.00 W/m2
06:30 54.4 °F 50.3 °F 29.93 in ESE 5.0 mph 12.0 mph 86 % 0.00 in 65.00 W/m2
06:35 54.4 °F 50.3 °F 29.93 in East 1.0 mph 11.0 mph 86 % 0.00 in 77.00 W/m2
06:40 54.4 °F 50.3 °F 29.94 in East 11.0 mph 11.0 mph 86 % 0.00 in 90.00 W/m2
06:45 54.4 °F 50.3 °F 29.94 in Calm   13.0 mph 86 % 0.00 in 105.00 W/m2
06:50 54.4 °F 50.3 °F 29.94 in East 1.0 mph 11.0 mph 86 % 0.00 in 123.00 W/m2
06:55 54.4 °F 50.3 °F 29.94 in East 2.0 mph 8.0 mph 86 % 0.00 in 142.00 W/m2
07:00 54.5 °F 50.4 °F 29.94 in East 6.0 mph 8.0 mph 86 % 0.00 in 160.00 W/m2
07:05 54.5 °F 50.4 °F 29.94 in East 1.0 mph 6.0 mph 86 % 0.00 in 179.00 W/m2
07:10 54.6 °F 50.5 °F 29.94 in Calm   5.0 mph 86 % 0.00 in 200.00 W/m2
07:15 54.7 °F 50.6 °F 29.94 in Calm   6.0 mph 86 % 0.00 in 220.00 W/m2
07:20 54.7 °F 50.6 °F 29.94 in Calm   4.0 mph 86 % 0.00 in 241.00 W/m2
07:21 54.8 °F 50.7 °F 29.94 in Calm     86 % 0.00 in 241.00 W/m2
07:26 54.8 °F 50.7 °F 29.94 in Calm     86 % 0.00 in 258.00 W/m2
07:31 54.9 °F 50.8 °F 29.94 in Calm     86 % 0.00 in 278.00 W/m2
07:36 55.0 °F 50.9 °F 29.94 in Calm     86 % 0.00 in 294.00 W/m2
07:41 55.1 °F 51.0 °F 29.94 in Calm     86 % 0.00 in 311.00 W/m2
07:46 55.2 °F 51.1 °F 29.94 in Calm     86 % 0.00 in 329.00 W/m2
07:51 55.3 °F 51.5 °F 29.94 in Calm     87 % 0.00 in 343.00 W/m2
07:56 55.4 °F 51.6 °F 29.94 in Calm   1.0 mph 87 % 0.00 in 359.00 W/m2
08:01 55.5 °F 51.7 °F 29.94 in Calm   1.0 mph 87 % 0.00 in 374.00 W/m2
08:06 55.7 °F 51.9 °F 29.94 in Calm     87 % 0.00 in 392.00 W/m2
08:11 55.9 °F 52.1 °F 29.94 in Calm     87 % 0.00 in 408.00 W/m2
08:13 55.9 °F 52.1 °F 29.94 in Calm     87 % 0.00 in 413.00 W/m2
08:18 56.1 °F 52.3 °F 29.94 in Calm     87 % 0.00 in 425.00 W/m2
08:23 56.2 °F 52.4 °F 29.94 in Calm     87 % 0.00 in 441.00 W/m2
08:28 56.4 °F 52.6 °F 29.94 in Calm     87 % 0.00 in 459.00 W/m2
08:33 56.6 °F 52.8 °F 29.95 in Calm     87 % 0.00 in 475.00 W/m2
08:38 56.9 °F 52.8 °F 29.95 in Calm     86 % 0.00 in 490.00 W/m2
08:43 57.3 °F 53.2 °F 29.95 in Calm     86 % 0.00 in 506.00 W/m2
08:48 57.7 °F 53.2 °F 29.95 in Calm   4.0 mph 85 % 0.00 in 520.00 W/m2
08:53 58.1 °F 53.3 °F 29.95 in Calm     84 % 0.00 in 536.00 W/m2
08:58 58.7 °F 53.6 °F 29.95 in Calm     83 % 0.00 in 550.00 W/m2
09:03 59.2 °F 54.0 °F 29.95 in Calm     83 % 0.00 in 566.00 W/m2
09:08 59.5 °F 53.7 °F 29.95 in East 2.0 mph 4.0 mph 81 % 0.00 in 578.00 W/m2
09:13 59.8 °F 53.6 °F 29.95 in East 2.0 mph 2.0 mph 80 % 0.00 in 592.00 W/m2
09:18 60.1 °F 53.2 °F 29.95 in Calm     78 % 0.00 in 608.00 W/m2
09:23 60.4 °F 54.2 °F 29.95 in East 4.0 mph 5.0 mph 80 % 0.00 in 622.00 W/m2
09:28 60.7 °F 53.8 °F 29.95 in Calm   2.0 mph 78 % 0.00 in 640.00 W/m2
09:33 60.9 °F 54.3 °F 29.96 in Calm     79 % 0.00 in 652.00 W/m2
09:38 61.2 °F 54.3 °F 29.96 in Calm   5.0 mph 78 % 0.00 in 664.00 W/m2
09:43 61.6 °F 54.7 °F 29.96 in East 2.0 mph 2.0 mph 78 % 0.00 in 682.00 W/m2
09:48 62.0 °F 54.7 °F 29.96 in Calm   4.0 mph 77 % 0.00 in 696.00 W/m2
09:53 62.3 °F 54.7 °F 29.95 in NE 3.0 mph 5.0 mph 76 % 0.00 in 715.00 W/m2
09:58 62.5 °F 55.6 °F 29.95 in Calm   5.0 mph 78 % 0.00 in 733.00 W/m2
10:03 62.7 °F 54.7 °F 29.95 in NE 1.0 mph 1.0 mph 75 % 0.00 in 206.00 W/m2
10:08 62.8 °F 54.8 °F 29.95 in Calm     75 % 0.00 in 220.00 W/m2
10:13 62.9 °F 54.9 °F 29.95 in Calm   1.0 mph 75 % 0.00 in 768.00 W/m2
10:18 63.1 °F 55.1 °F 29.94 in Calm   2.0 mph 75 % 0.00 in 763.00 W/m2
10:23 63.4 °F 55.0 °F 29.94 in Calm   3.0 mph 74 % 0.00 in 784.00 W/m2
10:28 63.6 °F 55.5 °F 29.94 in NNE 2.0 mph 3.0 mph 75 % 0.00 in 701.00 W/m2
10:33 63.9 °F 55.5 °F 29.94 in Calm   4.0 mph 74 % 0.00 in 803.00 W/m2
10:38 64.2 °F 55.4 °F 29.94 in Calm   1.0 mph 73 % 0.00 in 835.00 W/m2
10:44 64.6 °F 55.4 °F 29.94 in Calm     72 % 0.00 in 840.00 W/m2
10:49 64.9 °F 56.0 °F 29.94 in Calm   3.0 mph 73 % 0.00 in 851.00 W/m2
10:54 65.1 °F 55.9 °F 29.94 in Calm     72 % 0.00 in 120.00 W/m2
10:59 65.3 °F 55.7 °F 29.94 in North 4.0 mph 6.0 mph 71 % 0.00 in 851.00 W/m2
11:04 65.5 °F 55.9 °F 29.94 in Calm   4.0 mph 71 % 0.00 in 868.00 W/m2
11:09 65.8 °F 56.2 °F 29.94 in NNW 2.0 mph 7.0 mph 71 % 0.00 in 882.00 W/m2
11:14 66.1 °F 56.0 °F 29.94 in Calm   7.0 mph 70 % 0.00 in 888.00 W/m2
11:19 66.3 °F 55.8 °F 29.94 in NNW 2.0 mph 6.0 mph 69 % 0.00 in 884.00 W/m2
11:24 66.5 °F 56.0 °F 29.94 in NW 6.0 mph 7.0 mph 69 % 0.00 in 889.00 W/m2
11:29 66.7 °F 56.2 °F 29.95 in Calm   6.0 mph 69 % 0.00 in 863.00 W/m2
11:34 66.8 °F 55.1 °F 29.95 in Calm   8.0 mph 66 % 0.00 in 905.00 W/m2
11:39 67.0 °F 55.3 °F 29.95 in NW 3.0 mph 8.0 mph 66 % 0.00 in 907.00 W/m2
11:44 67.2 °F 55.5 °F 29.95 in NW 3.0 mph 4.0 mph 66 % 0.00 in 909.00 W/m2
11:49 67.5 °F 56.2 °F 29.94 in Calm   7.0 mph 67 % 0.00 in 914.00 W/m2
11:54 67.9 °F 56.5 °F 29.94 in Calm   2.0 mph 67 % 0.00 in 925.00 W/m2
11:59 68.2 °F 57.7 °F 29.94 in WNW 1.0 mph 4.0 mph 69 % 0.00 in 1013.00 W/m2
12:04 68.3 °F 57.8 °F 29.94 in Calm   8.0 mph 69 % 0.00 in 279.00 W/m2
12:09 68.4 °F 56.6 °F 29.94 in West 2.0 mph 8.0 mph 66 % 0.00 in 1044.00 W/m2
12:14 68.6 °F 58.0 °F 29.95 in West 6.0 mph 6.0 mph 69 % 0.00 in 1011.00 W/m2
12:19 68.9 °F 57.9 °F 29.94 in Calm   7.0 mph 68 % 0.00 in 1007.00 W/m2
12:24 69.0 °F 57.6 °F 29.94 in WNW 5.0 mph 8.0 mph 67 % 0.00 in 216.00 W/m2
12:29 68.9 °F 57.5 °F 29.94 in Calm   7.0 mph 67 % 0.00 in 192.00 W/m2
12:34 68.9 °F 57.5 °F 29.94 in Calm   1.0 mph 67 % 0.00 in 1030.00 W/m2
12:39 68.9 °F 57.5 °F 29.94 in Calm   7.0 mph 67 % 0.00 in 1014.00 W/m2
12:44 69.2 °F 57.8 °F 29.94 in WNW 1.0 mph 7.0 mph 67 % 0.00 in 1034.00 W/m2
12:49 69.1 °F 57.3 °F 29.94 in Calm   7.0 mph 66 % 0.00 in 167.00 W/m2
12:54 68.9 °F 57.5 °F 29.94 in WNW 4.0 mph 5.0 mph 67 % 0.00 in 1028.00 W/m2
12:59 68.6 °F 57.6 °F 29.94 in Calm   10.0 mph 68 % 0.00 in 1027.00 W/m2
13:04 68.7 °F 57.3 °F 29.94 in Calm   6.0 mph 67 % 0.00 in 1027.00 W/m2
13:09 68.9 °F 57.5 °F 29.94 in Calm   9.0 mph 67 % 0.00 in 1062.00 W/m2
13:16 69.2 °F 58.2 °F 29.94 in Calm   5.0 mph 68 % 0.00 in 991.00 W/m2
13:21 69.6 °F 57.8 °F 29.93 in West 4.0 mph 6.0 mph 66 % 0.00 in 960.00 W/m2
13:26 69.9 °F 57.2 °F 29.93 in Calm     64 % 0.00 in 965.00 W/m2
13:31 70.0 °F 57.7 °F 29.94 in Calm     65 % 0.00 in 155.00 W/m2
13:36 69.7 °F 57.8 °F 29.93 in Calm     66 % 0.00 in 951.00 W/m2
13:41 69.8 °F 57.1 °F 29.93 in Calm   3.0 mph 64 % 0.00 in 946.00 W/m2
13:46 70.2 °F 58.3 °F 29.93 in West 5.0 mph 5.0 mph 66 % 0.00 in 937.00 W/m2
13:51 70.7 °F 57.9 °F 29.93 in Calm   7.0 mph 64 % 0.00 in 937.00 W/m2
13:56 71.0 °F 57.3 °F 29.93 in NW 6.0 mph 7.0 mph 62 % 0.00 in 928.00 W/m2
14:01 71.0 °F 57.3 °F 29.93 in Calm   5.0 mph 62 % 0.00 in 940.00 W/m2
14:06 71.1 °F 57.0 °F 29.93 in WSW 7.0 mph 8.0 mph 61 % 0.00 in 853.00 W/m2
14:11 71.3 °F 57.2 °F 29.93 in WSW 5.0 mph 6.0 mph 61 % 0.00 in 956.00 W/m2
14:16 71.6 °F 57.5 °F 29.93 in Calm   6.0 mph 61 % 0.00 in 921.00 W/m2
14:21 71.7 °F 57.1 °F 29.93 in NW 3.0 mph 3.0 mph 60 % 0.00 in 856.00 W/m2
14:26 71.4 °F 56.8 °F 29.93 in Calm   2.0 mph 60 % 0.00 in 923.00 W/m2
14:31 71.3 °F 56.2 °F 29.93 in Calm   4.0 mph 59 % 0.00 in 886.00 W/m2
14:36 71.3 °F 56.7 °F 29.93 in Calm     60 % 0.00 in 891.00 W/m2
14:41 71.5 °F 56.9 °F 29.93 in West 1.0 mph 1.0 mph 60 % 0.00 in 872.00 W/m2
14:46 71.7 °F 56.6 °F 29.93 in WNW 7.0 mph 7.0 mph 59 % 0.00 in 872.00 W/m2
14:47 71.7 °F 56.6 °F 29.93 in Calm   8.0 mph 59 % 0.00 in 868.00 W/m2
14:52 71.8 °F 56.7 °F 29.93 in Calm     59 % 0.00 in 849.00 W/m2
14:57 71.9 °F 57.3 °F 29.93 in SW 5.0 mph 7.0 mph 60 % 0.00 in 861.00 W/m2
15:02 72.0 °F 56.4 °F 29.93 in West 4.0 mph 5.0 mph 58 % 0.00 in 846.00 W/m2
15:07 72.1 °F 57.0 °F 29.93 in Calm   4.0 mph 59 % 0.00 in 842.00 W/m2
15:13 72.0 °F 56.0 °F 29.93 in SW 8.0 mph 9.0 mph 57 % 0.00 in 816.00 W/m2
15:18 72.0 °F 56.0 °F 29.93 in Calm     57 % 0.00 in 807.00 W/m2
15:23 71.9 °F 56.3 °F 29.93 in Calm   5.0 mph 58 % 0.00 in 800.00 W/m2
15:28 72.0 °F 56.0 °F 29.93 in Calm   8.0 mph 57 % 0.00 in 784.00 W/m2
15:33 71.9 °F 55.4 °F 29.93 in Calm     56 % 0.00 in 773.00 W/m2
15:38 71.9 °F 55.4 °F 29.93 in Calm   6.0 mph 56 % 0.00 in 761.00 W/m2
15:43 71.8 °F 55.3 °F 29.92 in WSW 4.0 mph 6.0 mph 56 % 0.00 in 751.00 W/m2
15:48 71.8 °F 55.8 °F 29.92 in NW 7.0 mph 8.0 mph 57 % 0.00 in 742.00 W/m2
15:53 71.7 °F 55.2 °F 29.92 in Calm     56 % 0.00 in 729.00 W/m2
15:58 71.7 °F 55.2 °F 29.92 in Calm     56 % 0.00 in 715.00 W/m2
16:03 71.7 °F 55.7 °F 29.92 in Calm   7.0 mph 57 % 0.00 in 700.00 W/m2
16:08 71.7 °F 55.7 °F 29.92 in Calm     57 % 0.00 in 689.00 W/m2
16:13 71.8 °F 55.8 °F 29.92 in Calm   5.0 mph 57 % 0.00 in 677.00 W/m2
16:18 71.9 °F 56.3 °F 29.92 in WNW 5.0 mph 5.0 mph 58 % 0.00 in 664.00 W/m2
16:23 71.8 °F 55.8 °F 29.92 in West 5.0 mph 8.0 mph 57 % 0.00 in 649.00 W/m2
16:28 71.8 °F 55.3 °F 29.92 in Calm     56 % 0.00 in 633.00 W/m2
16:33 71.8 °F 56.2 °F 29.92 in Calm   9.0 mph 58 % 0.00 in 621.00 W/m2
16:38 71.9 °F 55.9 °F 29.92 in Calm   1.0 mph 57 % 0.00 in 608.00 W/m2
16:43 71.9 °F 55.9 °F 29.92 in Calm   5.0 mph 57 % 0.00 in 596.00 W/m2
16:48 71.9 °F 56.3 °F 29.92 in Calm   4.0 mph 58 % 0.00 in 582.00 W/m2
16:53 71.9 °F 55.9 °F 29.92 in Calm   7.0 mph 57 % 0.00 in 564.00 W/m2
16:58 71.9 °F 55.9 °F 29.92 in Calm   4.0 mph 57 % 0.00 in 547.00 W/m2
17:03 71.9 °F 55.9 °F 29.92 in Calm   10.0 mph 57 % 0.00 in 534.00 W/m2
17:08 71.8 °F 55.8 °F 29.92 in Calm   6.0 mph 57 % 0.00 in 520.00 W/m2
17:13 71.7 °F 56.2 °F 29.92 in Calm   5.0 mph 58 % 0.00 in 504.00 W/m2
17:18 71.8 °F 56.2 °F 29.92 in Calm   7.0 mph 58 % 0.00 in 490.00 W/m2
17:23 71.7 °F 55.7 °F 29.92 in Calm   2.0 mph 57 % 0.00 in 473.00 W/m2
17:28 71.6 °F 56.1 °F 29.92 in Calm   6.0 mph 58 % 0.00 in 461.00 W/m2
17:33 71.6 °F 55.6 °F 29.92 in Calm   6.0 mph 57 % 0.00 in 445.00 W/m2
17:38 71.5 °F 55.5 °F 29.92 in Calm   5.0 mph 57 % 0.00 in 427.00 W/m2
17:43 71.5 °F 56.0 °F 29.92 in Calm   4.0 mph 58 % 0.00 in 411.00 W/m2
17:49 71.4 °F 54.9 °F 29.92 in Calm   1.0 mph 56 % 0.00 in 397.00 W/m2
17:54 71.4 °F 55.4 °F 29.92 in Calm   3.0 mph 57 % 0.00 in 380.00 W/m2
17:59 71.3 °F 55.8 °F 29.92 in Calm   2.0 mph 58 % 0.00 in 364.00 W/m2
18:04 71.2 °F 54.7 °F 29.92 in Calm   7.0 mph 56 % 0.00 in 346.00 W/m2
18:14 71.0 °F 55.0 °F 29.92 in Calm   4.0 mph 57 % 0.00 in 318.00 W/m2
18:19 71.0 °F 55.0 °F 29.92 in Calm     57 % 0.00 in 301.00 W/m2
18:24 70.9 °F 55.4 °F 29.92 in Calm   6.0 mph 58 % 0.00 in 285.00 W/m2
18:26 70.9 °F 55.9 °F 29.92 in WNW 6.0 mph 7.0 mph 59 % 0.00 in 276.00 W/m2
18:31 70.8 °F 55.8 °F 29.92 in WNW 3.0 mph 3.0 mph 59 % 0.00 in 260.00 W/m2
18:36 70.7 °F 55.7 °F 29.92 in Calm   1.0 mph 59 % 0.00 in 244.00 W/m2
18:41 70.6 °F 55.1 °F 29.92 in WNW 4.0 mph 6.0 mph 58 % 0.00 in 229.00 W/m2
18:46 70.6 °F 56.1 °F 29.92 in Calm     60 % 0.00 in 213.00 W/m2
18:51 70.5 °F 55.0 °F 29.92 in WNW 3.0 mph 4.0 mph 58 % 0.00 in 197.00 W/m2
18:56 70.4 °F 55.4 °F 29.92 in Calm   2.0 mph 59 % 0.00 in 185.00 W/m2
19:01 70.3 °F 55.8 °F 29.92 in Calm     60 % 0.00 in 167.00 W/m2
19:06 70.2 °F 55.7 °F 29.92 in Calm     60 % 0.00 in 149.00 W/m2
19:11 70.0 °F 56.4 °F 29.92 in Calm   5.0 mph 62 % 0.00 in 130.00 W/m2
19:16 69.9 °F 56.8 °F 29.92 in Calm     63 % 0.00 in 113.00 W/m2
19:21 69.8 °F 57.5 °F 29.92 in Calm     65 % 0.00 in 95.00 W/m2
19:26 69.5 °F 57.2 °F 29.92 in Calm     65 % 0.00 in 79.00 W/m2
19:31 69.3 °F 57.0 °F 29.92 in Calm     65 % 0.00 in 67.00 W/m2
19:36 69.0 °F 57.2 °F 29.92 in Calm     66 % 0.00 in 54.00 W/m2
19:41 68.8 °F 56.6 °F 29.92 in Calm     65 % 0.00 in 44.00 W/m2
19:46 68.5 °F 56.3 °F 29.92 in Calm     65 % 0.00 in 35.00 W/m2
19:52 68.3 °F 56.5 °F 29.92 in Calm     66 % 0.00 in 26.00 W/m2
19:57 68.0 °F 56.7 °F 29.92 in Calm     67 % 0.00 in 19.00 W/m2
20:02 67.8 °F 56.5 °F 29.92 in Calm     67 % 0.00 in 16.00 W/m2
20:07 67.5 °F 56.6 °F 29.92 in Calm     68 % 0.00 in 14.00 W/m2
20:12 67.1 °F 56.6 °F 29.92 in Calm     69 % 0.00 in 12.00 W/m2
20:17 66.8 °F 56.3 °F 29.92 in Calm     69 % 0.00 in 9.00 W/m2
20:22 66.3 °F 56.2 °F 29.92 in Calm     70 % 0.00 in 5.00 W/m2
20:27 66.0 °F 56.0 °F 29.92 in Calm     70 % 0.00 in 5.00 W/m2
20:32 65.7 °F 55.7 °F 29.93 in Calm     70 % 0.00 in 0.00 W/m2
20:37 65.4 °F 56.2 °F 29.93 in Calm     72 % 0.00 in 0.00 W/m2
20:42 65.1 °F 55.5 °F 29.93 in Calm     71 % 0.00 in 0.00 W/m2
20:47 64.8 °F 55.2 °F 29.93 in Calm     71 % 0.00 in 0.00 W/m2
20:52 64.5 °F 54.9 °F 29.93 in Calm     71 % 0.00 in 0.00 W/m2
20:57 64.1 °F 54.9 °F 29.93 in Calm     72 % 0.00 in 0.00 W/m2
21:02 63.8 °F 54.6 °F 29.93 in Calm     72 % 0.00 in 0.00 W/m2
21:07 63.5 °F 54.7 °F 29.93 in Calm     73 % 0.00 in 0.00 W/m2
21:12 63.3 °F 54.9 °F 29.93 in Calm     74 % 0.00 in 0.00 W/m2
21:17 63.1 °F 54.3 °F 29.93 in Calm     73 % 0.00 in 0.00 W/m2
21:22 62.9 °F 54.5 °F 29.93 in Calm     74 % 0.00 in 0.00 W/m2
21:27 62.7 °F 54.3 °F 29.93 in Calm     74 % 0.00 in 0.00 W/m2
21:32 62.5 °F 54.1 °F 29.93 in Calm     74 % 0.00 in 0.00 W/m2
21:37 62.3 °F 53.9 °F 29.93 in Calm     74 % 0.00 in 0.00 W/m2
21:42 62.2 °F 53.8 °F 29.93 in Calm     74 % 0.00 in 0.00 W/m2
21:47 62.1 °F 54.1 °F 29.93 in Calm     75 % 0.00 in 0.00 W/m2
21:52 62.0 °F 54.0 °F 29.93 in Calm     75 % 0.00 in 0.00 W/m2
21:57 61.9 °F 53.9 °F 29.93 in Calm     75 % 0.00 in 0.00 W/m2
22:02 61.9 °F 53.9 °F 29.93 in Calm     75 % 0.00 in 0.00 W/m2
22:07 61.7 °F 53.7 °F 29.93 in Calm     75 % 0.00 in 0.00 W/m2
22:12 61.7 °F 53.7 °F 29.93 in Calm     75 % 0.00 in 0.00 W/m2
22:17 61.6 °F 54.0 °F 29.93 in Calm     76 % 0.00 in 0.00 W/m2
22:23 61.5 °F 53.9 °F 29.93 in Calm     76 % 0.00 in 0.00 W/m2
22:28 61.4 °F 53.8 °F 29.93 in Calm   3.0 mph 76 % 0.00 in 0.00 W/m2
22:32 61.5 °F 53.9 °F 29.93 in Calm   3.0 mph 76 % 0.00 in 0.00 W/m2
22:37 61.4 °F 53.8 °F 29.93 in Calm   4.0 mph 76 % 0.00 in 0.00 W/m2
22:42 61.4 °F 54.1 °F 29.93 in Calm   3.0 mph 77 % 0.00 in 0.00 W/m2
22:48 61.4 °F 54.1 °F 29.93 in Calm     77 % 0.00 in 0.00 W/m2
22:53 61.3 °F 54.0 °F 29.93 in Calm     77 % 0.00 in 0.00 W/m2
22:58 61.3 °F 54.0 °F 29.93 in Calm     77 % 0.00 in 0.00 W/m2
23:03 61.3 °F 54.0 °F 29.94 in Calm     77 % 0.00 in 0.00 W/m2
23:08 61.3 °F 54.4 °F 29.93 in Calm     78 % 0.00 in 0.00 W/m2
23:13 61.2 °F 54.3 °F 29.93 in Calm     78 % 0.00 in 0.00 W/m2
23:18 61.1 °F 53.8 °F 29.93 in Calm     77 % 0.00 in 0.00 W/m2
23:23 61.1 °F 53.8 °F 29.93 in Calm     77 % 0.00 in 0.00 W/m2
23:28 61.1 °F 54.2 °F 29.93 in Calm     78 % 0.00 in 0.00 W/m2
23:33 61.0 °F 54.1 °F 29.93 in Calm     78 % 0.00 in 0.00 W/m2
23:38 60.8 °F 53.9 °F 29.93 in Calm     78 % 0.00 in 0.00 W/m2
23:43 60.7 °F 53.8 °F 29.93 in Calm   1.0 mph 78 % 0.00 in 0.00 W/m2
23:48 60.5 °F 53.6 °F 29.93 in WNW 2.0 mph 3.0 mph 78 % 0.00 in 0.00 W/m2
23:53 60.3 °F 53.4 °F 29.93 in Calm   4.0 mph 78 % 0.00 in 0.00 W/m2
23:58 60.2 °F 53.3 °F 29.93 in Calm     78 % 0.00 in 0.00 W/m2
Juneau County Weather
Compliments of Weather Underground - 4.5 mb
 WU-history PHP script courtesy of   Juneau County Weather.
powered by Cumulus v1.9.3 (1059)
Ambient Weather VWS v14.00
Top Contact Website Map Copyright © 2007 - 2018 Foresthillweather.com Never base important decisions on this or any weather information obtained from the Internet